Погода в Мочалище

Россия / Республика Марий Эл     56°20′01″N   48°21′22″E
темп.,
°C
ветер,
м/с
пор.,
м/с
влажн.,
%
обл.,
%
осадки,
мм/ч
давл.,
гПа
погр.,
м
10 апреля, сб
сб1000:00−2зюз009986 0.0 102819
03:00−2ссв119998 0.0 103050
06:00−1всв2399100 0.0 1030110
09:00+3всв2490100 0.0 1030299
12:00+4в3590100 0.1 1030562
15:00+2св3799100 2.1 1029406
18:00+1св3899100 2.8 1028324
21:00+1св2599100 3.3 1027150
11 апреля, вс
вс1100:00+1ссв2499100 1.3 1026109
03:00+1с2599100 3.6 1026142
06:00+1с36100100 0.1 1028179
09:00+3с3597100 0.1 1029340
12:00+5с3489100 0.0 1031467
15:00+7ссв2375100 0.0 1032497
18:00+3всв1193100 0.0 103311
21:00+1всв1194100 0.0 103512
12 апреля, пн
пн1200:00−1всв2290100 0.0 103516
03:000св2685100 0.0 103693
06:00+2всв2887100 0.0 1036185
09:00+5всв3979100 0.0 1037306
12:00+7в3771100 0.1 1037400
15:00+5в41084100 0.2 1036285
18:00+4в3988100 0.0 1036241
21:00+3в3796100 0.0 1035153
13 апреля, вт
вт1300:00+3в2597100 0.0 103589
03:00+4вюв249699 0.0 103461
06:00+5юв239666 0.0 103362
09:00+12ююв357874 0.0 1032281
12:00+16ю4662100 0.0 1031762
15:00+17ю465360 0.0 10301106
18:00+12ю356496 0.0 102977
21:00+8ююв37748 0.0 1029107
14 апреля, ср
ср1400:00+7ю357851 0.0 102966
03:00+6ю228140 0.0 102830
06:00+6ю22794 0.0 102835
09:00+13ю245765 0.0 1028306
12:00+17ю344347 0.0 1027809
15:00+18ю343772 0.0 10251184
18:00+14ююв345830 0.0 102452
21:00+10ююв35719 0.0 102477